Location: Stilling
(56.0622°N, 9.9882°E)
Time: 13:18:12
(UTC+00:00)

BREEZE-M DEB (TANK) - Pass Details

Date: 13 July 2020
Orbit: 328 x 12049 km, 49.6° (Epoch: 06 August)

Event Time Altitude Azimuth Distance (km) Brightness Sun altitude
Rises 21:20:01 0° 275° (W) 4,756 7.4 -7.8°
Reaches altitude 10° 21:24:42 10° 265° (W) 2,626 5.9 -8.2°
Maximum altitude 21:28:52 24° 210° (SSW) 1,100 3.4 -8.4°
Enters shadow 21:30:54 12° 156° (SSE) 1,313 3.4 -8.6°
